Regional Weather Roundup
Issued by NWS

Home | Current Version | Previous Version | Graphics & Text | Print | Product List | Glossary On
Versions: 1 2 3 4 5 6 7 8 9 10 11 12 13 14 15 16 17 18 19 20 21 22 23 24 25 26 27 28 29 30 31 32 33 34 35 36 37 38 39 40 41 42 43 44 45 46 47 48 49 50
000
ASUS43 KDMX 191207
RWRIA

WEATHER ROUNDUP FOR IOWA
NATIONAL WEATHER SERVICE DES MOINES IA
600 AM CST FRI DEC 19 2014

NOTE: "FAIR" INDICATES FEW OR NO CLOUDS BELOW 12,000 FEET WITH NO
SIGNIFICANT WEATHER AND/OR OBSTRUCTIONS TO VISIBILITY.

* - THESE STATIONS ARE NOT NWS STATIONS...THUS NOT UNDER NWS
QUALITY CONTROL.  THEY ALSO DO NOT REPORT WEATHER SUCH
AS PRECIPITATION OR FOG.

IAZ001>003-012>014-020>022-031>034-043>046-191300-
   NORTHWEST IOWA

CITY           SKY/WX    TMP DP  RH WIND       PRES   REMARKS
CARROLL *      CLOUDY    30  28  93 S5        30.22S FOG     WCI  25
CHEROKEE *     CLOUDY    29  29  99 S6        30.20R WCI  23
DENISON *      CLOUDY    30  30 100 S6        30.19S FOG     WCI  24
LE MARS *      CLOUDY    30  28  93 S8        30.19S FOG     WCI  23
ORANGE CITY *  CLOUDY    30  27  86 S7        30.17S FOG     WCI  23
SHELDON *      CLOUDY    28  28 100 S8        30.17R WCI  20
SIOUX CITY     CLOUDY    31  28  89 S7        30.19F FOG     WCI  24
6HR MIN TEMP:  30; 6HR MAX TEMP:  31;

SPENCER        CLOUDY    29  26  89 S6        30.19S WCI  23
6HR MIN TEMP:  28; 6HR MAX TEMP:  29;

STORM LAKE *   CLOUDY    28  28 100 S5        30.20S FOG     WCI  23
$$

IAZ055>058-069>071-079>083-090>094-191300-
   SOUTHWEST IOWA

CITY           SKY/WX    TMP DP  RH WIND       PRES   REMARKS
ATLANTIC *     CLOUDY    30  30 100 S5        30.22S FOG     WCI  25
AUDUBON *      MOCLDY    28  25  86 S5        30.22S HAZE    WCI  23
CLARINDA *     CLOUDY    30  30 100 S5        30.25S FOG     WCI  25
COUNCIL BLFS * CLOUDY    30  30 100 S5        30.20S FOG     WCI  25
CRESTON *      CLOUDY    28  28 100 S5        30.23S WCI  23
HARLAN  *      CLOUDY    30  30 100 S7        30.25S WCI  23
LAMONI         LGT SNOW  28  26  92 CALM      30.24S FOG
6HR MIN TEMP:  28; 6HR MAX TEMP:  28; 6HR PCP: TRACE;

RED OAK *      CLOUDY    30  30 100 CALM      30.23S FOG
SHENANDOAH *   CLOUDY    30  30 100 S3        30.24S FOG
$$

IAZ047>049-059>061-072>074-084-191300-
   CENTRAL IOWA

CITY           SKY/WX    TMP DP  RH WIND       PRES   REMARKS
AMES           CLOUDY    26  23  88 SE5       30.25S WCI  20
6HR MIN TEMP:  26; 6HR MAX TEMP:  26;

ANKENY *       CLOUDY    28  25  86 CALM      30.26S
CHARITON *     CLOUDY    28  27  93 S3        30.25S
DES MOINES     LGT SNOW  29  25  85 SE5       30.25F FOG     WCI  24
6HR MIN TEMP:  28; 6HR MAX TEMP:  29; 6HR PCP: TRACE;

GRINNELL*      CLOUDY    27  23  86 CALM      30.26S
KNOXVILLE *    CLOUDY    27  25  93 CALM      30.25S
MARSHALLTOWN   CLOUDY    25  21  85 E5        30.25S WCI  19
6HR MIN TEMP:  22; 6HR MAX TEMP:  25;

PELLA *        CLOUDY    27  25  90 CALM      30.28S
PERRY *        LGT SNOW  28  28 100 S5        30.24S WCI  23
$$

IAZ004>006-015-016-023>025-035-036-191300-
   NORTH CENTRAL IOWA

CITY           SKY/WX    TMP DP  RH WIND       PRES   REMARKS
ALGONA *       CLOUDY    27  27 100 S7        30.22S FOG     WCI  19
CLARION *      CLOUDY    27  27 100 S7        30.24S WCI  19
ESTHERVILLE    CLOUDY    26  25  96 S8        30.20S FOG     WCI  18
6HR MIN TEMP:  25; 6HR MAX TEMP:  26;

FORT DODGE *   CLOUDY    27  23  86 S3        30.24R
MASON CITY     CLOUDY    24  21  88 SE6       30.25S WCI  17
6HR MIN TEMP:  23; 6HR MAX TEMP:  24;

FOREST CITY *  CLOUDY    27  23  86 SE6       30.23S WCI  20
IOWA FALLS *   CLOUDY    26  22  87 CALM      30.25S
$$

IAZ007>011-017>019-026>030-037>042-050>054-066-191300-
   NORTHEAST IOWA

CITY           SKY/WX    TMP DP  RH WIND       PRES   REMARKS
CEDAR RAPIDS   CLOUDY    23  21  92 E5        30.27R WCI  17
6HR MIN TEMP:  23; 6HR MAX TEMP:  25;

CHARLES CITY * CLOUDY    23  21  93 CALM      30.25F
CLINTON *        N/A     16  10  79 N3        30.32R
DECORAH *      CLOUDY    23  19  86 CALM      30.25S
DUBUQUE        CLOUDY    23  20  88 CALM      30.27S
6HR MIN TEMP:  23; 6HR MAX TEMP:  24;

MONTICELLO *   CLOUDY    21  21 100 CALM      30.28F
OELWEIN *      CLOUDY    23  21  93 CALM      30.26S
WATERLOO       CLOUDY    25  20  81 CALM      30.27S
6HR MIN TEMP:  24; 6HR MAX TEMP:  25;

$$

IAZ064-065-067-068-078-191300-
   EAST CENTRAL IOWA

CITY           SKY/WX    TMP DP  RH WIND       PRES   REMARKS
DAVENPORT      CLEAR     16  11  80 CALM      30.30R
6HR MIN TEMP:  13; 6HR MAX TEMP:  18;

IOWA CITY      CLEAR     22  19  89 CALM      30.31R
6HR MIN TEMP:  22; 6HR MAX TEMP:  26;

MT. PLEASANT * CLOUDY    27  23  86 E5        30.30S WCI  21
MUSCATINE *    CLOUDY    25  21  86 CALM      30.31S
QUAD CITIES    CLEAR     17  13  84 CALM      30.30R
6HR MIN TEMP:  15; 6HR MAX TEMP:  19;

$$

IAZ062-063-075>077-085>089-095>099-191300-
   SOUTHEAST IOWA

CITY           SKY/WX    TMP DP  RH WIND       PRES   REMARKS
BURLINGTON     CLOUDY    27  21  78 NE5       30.29R WCI  22
6HR MIN TEMP:  27; 6HR MAX TEMP:  29; 6HR PCP: TRACE;

FAIRFIELD *    CLOUDY    27  23  86 CALM      30.29R
FORT MADISON * CLOUDY    28  27  93 CALM      30.30S
KEOKUK *       CLOUDY    28  25  86 CALM      30.29R
OSKALOOSA *    CLOUDY    26  24  89 SE5       30.28R WCI  21
CENTERVILLE *  CLOUDY    27  27 100 CALM      30.27S
OTTUMWA        CLOUDY    27  23  85 SE5       30.27S WCI  22
6HR MIN TEMP:  26; 6HR MAX TEMP:  27;

WASHINGTON *   CLOUDY    27  27 100 E3        30.29R
$$

ABBREVIATIONS USED IN REMARKS
   TC - TEMPERATURES IN CELSIUS
  WCI - WIND CHILL INDEX
   HX - HEAT INDEX
  VSB - VISIBILITY
$$




USA.gov is the U.S. government's official web portal to all federal, state and local government web resources and services.